Location: ??????????
(44.2167°N, 135.5333°E)
Time: 13:48:28
(UTC+00:00)

NOSS 2-1 (D) - Pass Details

Date: 15 June 2025
Orbit: 377 x 1695 km, 63.3° (Epoch: 15 July)

Event Time Altitude Azimuth Distance (km) Brightness Sun altitude
Rises 15:45:15 0° 315° (NW) 2,517 7.2 -21.6°
Reaches altitude 10° 15:47:11 10° 308° (NW) 1,748 6.2 -21.5°
Enters shadow 15:50:20 41° 256° (WSW) 887 4.1 -21.4°
